Copper Mountain, CO

3:30 PM MDT on July 21, 2017 (GMT -0600)
Copper Mountain

Weather History for KCCU - October, 2012

Change the Weather History Date:

Friday, October 12, 2012

  Actual Average Record
Temperature  
Mean Temperature 41 °F -  
Max Temperature 50 °F - 55 °F (2007)
Min Temperature 32 °F - 8 °F (2001)
Degree Days  
Heating Degree Days 24    
Month to date heating degree days  
Cooling Degree Days 0    
Month to date cooling degree days  
Moisture  
Dew Point 28 °F    
Average Humidity 63    
Maximum Humidity 87    
Minimum Humidity 40    
Precipitation  
Precipitation 0.05 in - 0.05 in (2012)
Sea Level Pressure  
Sea Level Pressure 30.32 in    
Wind  
Wind Speed 21 mph (South)    
Max Wind Speed 33 mph    
Max Gust Speed 41 mph    
Visibility 8 miles    
Events Snow , Thunderstorm    
T = Trace of Precipitation, MM = Missing Value Source: NWS Daily Summary

Daily Weather History Graph

Daily Weather History Graph

Search for Another Location

Airport or City:

Trip Planner

Search our weather history database for the weather conditions in past years. The results will help you decide how hot, cold, wet, or windy it might be!

Date:

Astronomy

Oct. 12, 2012 Rise Set
Actual Time 7:12 AM MDT 6:29 PM MDT
Civil Twilight 6:45 AM MDT 6:56 PM MDT
Nautical Twilight 6:13 AM MDT 7:27 PM MDT
Astronomical Twilight 5:42 AM MDT 7:58 PM MDT
Moon 3:58 AM MDT (10/12) 4:39 PM MDT (10/12)
Length of Visible Light 12h 11m
Length of Day
11h 17m
Waning Crescent, 10% of the Moon is Illuminated
Oct 12
Waning Crescent
Oct 15
New
Oct 21
First Quarter
Oct 29
Full
Nov 6
Last Quarter

Hourly Weather History & Observations

Time (MDT) Temp. Windchill Dew Point Humidity Pressure Visibility Wind Dir Wind Speed Gust Speed Precip Events Conditions
12:06 AM 42.8 °F 33.5 °F 26.6 °F 53% 30.45 in 10.0 mi SSE 23.0 mph 27.6 mph N/A   Clear
12:26 AM 44.6 °F 36.9 °F 26.6 °F 49% 30.45 in 10.0 mi South 18.4 mph 26.5 mph N/A   Clear
12:46 AM 41.0 °F 32.8 °F 26.6 °F 57% 30.45 in 10.0 mi South 16.1 mph 28.8 mph N/A   Clear
1:05 AM 41.0 °F 30.2 °F 28.4 °F 61% 30.45 in 10.0 mi South 27.6 mph - N/A   Scattered Clouds
1:35 AM 41.0 °F 29.8 °F 30.2 °F 65% 30.43 in 10.0 mi South 29.9 mph 36.8 mph N/A   Mostly Cloudy
2:06 AM 41.0 °F 29.5 °F 30.2 °F 65% 30.42 in 10.0 mi SSE 32.2 mph 41.4 mph N/A   Overcast
2:26 AM 41.0 °F 29.3 °F 28.4 °F 61% 30.42 in 10.0 mi SSE 33.4 mph 39.1 mph N/A   Mostly Cloudy
2:46 AM 41.0 °F 29.7 °F 26.6 °F 57% 30.42 in 10.0 mi South 31.1 mph 38.0 mph N/A   Scattered Clouds
3:06 AM 41.0 °F 29.5 °F 26.6 °F 57% 30.42 in 10.0 mi South 32.2 mph 36.8 mph N/A   Clear
3:27 AM 41.0 °F 29.7 °F 26.6 °F 57% 30.41 in 10.0 mi South 31.1 mph - N/A   Clear
3:46 AM 41.0 °F 31.1 °F 24.8 °F 53% 30.42 in 10.0 mi South 23.0 mph - N/A   Clear
4:06 AM 41.0 °F 31.9 °F 24.8 °F 53% 30.43 in 10.0 mi South 19.6 mph - N/A   Clear
4:55 AM 41.0 °F 32.8 °F 24.8 °F 53% 30.41 in 10.0 mi South 16.1 mph - N/A   Clear
5:15 AM 42.8 °F 34.3 °F 26.6 °F 53% 30.41 in 10.0 mi South 19.6 mph 24.2 mph N/A   Clear
5:27 AM 44.6 °F 35.9 °F 26.6 °F 49% 30.41 in 10.0 mi South 23.0 mph 31.1 mph N/A   Clear
5:47 AM 44.6 °F 36.6 °F 26.6 °F 49% 30.41 in 10.0 mi South 19.6 mph - N/A   Clear
6:05 AM 44.6 °F 37.2 °F 26.6 °F 49% 30.41 in 10.0 mi South 17.3 mph - N/A Thunderstorm Clear
6:26 AM 44.6 °F 36.4 °F 26.6 °F 49% 30.41 in 10.0 mi South 20.7 mph - N/A   Clear
6:46 AM 44.6 °F 36.1 °F 28.4 °F 53% 30.40 in 10.0 mi South 21.9 mph - N/A   Clear
7:07 AM 44.6 °F 36.1 °F 28.4 °F 53% 30.39 in 10.0 mi SSE 21.9 mph - N/A   Clear
7:27 AM 44.6 °F 36.6 °F 28.4 °F 53% 30.39 in 10.0 mi SSE 19.6 mph 27.6 mph N/A   Clear
7:55 AM 44.6 °F 36.4 °F 26.6 °F 49% 30.39 in 10.0 mi SSE 20.7 mph - N/A   Clear
8:15 AM 44.6 °F 36.6 °F 26.6 °F 49% 30.39 in 10.0 mi SSE 19.6 mph 28.8 mph N/A   Clear
8:35 AM 46.4 °F 39.2 °F 26.6 °F 46% 30.40 in 10.0 mi SSE 18.4 mph 32.2 mph N/A   Clear
8:55 AM 44.6 °F 36.1 °F 26.6 °F 49% 30.38 in 10.0 mi SSE 21.9 mph 31.1 mph N/A   Clear
9:15 AM 44.6 °F 36.6 °F 26.6 °F 49% 30.38 in 10.0 mi SSE 19.6 mph 26.5 mph N/A   Clear
9:35 AM 46.4 °F 38.7 °F 26.6 °F 46% 30.38 in 10.0 mi SSE 20.7 mph 32.2 mph N/A Thunderstorm Clear
9:55 AM 46.4 °F 39.5 °F 28.4 °F 50% 30.38 in 10.0 mi SSE 17.3 mph 25.3 mph N/A   Clear
10:15 AM 50.0 °F - 26.6 °F 40% 30.37 in 10.0 mi SSE 19.6 mph 28.8 mph N/A   Clear
10:35 AM 46.4 °F 38.3 °F 26.6 °F 46% 30.36 in 10.0 mi SSE 23.0 mph 31.1 mph N/A   Clear
10:55 AM 48.2 °F - 26.6 °F 43% 30.36 in 10.0 mi SSE 21.9 mph 32.2 mph N/A   Scattered Clouds
11:15 AM 50.0 °F - 26.6 °F 40% 30.36 in 10.0 mi SSE 20.7 mph 26.5 mph N/A   Overcast
11:35 AM 46.4 °F 39.8 °F 26.6 °F 46% 30.36 in 10.0 mi South 16.1 mph 27.6 mph N/A Thunderstorm Mostly Cloudy
11:55 AM 46.4 °F 39.8 °F 26.6 °F 46% 30.34 in 10.0 mi SSE 16.1 mph 21.9 mph N/A   Overcast
12:35 PM 41.0 °F 35.8 °F 33.8 °F 76% 30.33 in 5.0 mi South 8.1 mph - N/A Thunderstorm Unknown
12:55 PM 37.4 °F 28.9 °F 32.0 °F 81% 30.34 in 0.5 mi SSW 13.8 mph 17.3 mph N/A Thunderstorm Thunderstorm
1:15 PM 37.4 °F 26.9 °F 33.8 °F 87% 30.31 in 0.5 mi South 20.7 mph - N/A Snow Snow
1:35 PM 37.4 °F 26.9 °F 33.8 °F 87% 30.28 in 2.5 mi SSE 20.7 mph - 0.04 in   Haze
1:55 PM 42.8 °F 38.0 °F 35.6 °F 76% 30.28 in 1.0 mi South 8.1 mph 13.8 mph 0.04 in   Haze
2:15 PM 44.6 °F 39.2 °F 32.0 °F 61% 30.27 in 10.0 mi SSE 10.4 mph 18.4 mph N/A   Scattered Clouds
2:35 PM 42.8 °F 36.6 °F 33.8 °F 70% 30.26 in 0.8 mi SSW 11.5 mph 21.9 mph N/A   Haze
2:55 PM 41.0 °F 35.8 °F 32.0 °F 70% 30.25 in 2.0 mi SW 8.1 mph 20.7 mph N/A Thunderstorm Unknown
3:15 PM 37.4 °F 25.4 °F 33.8 °F 87% 30.24 in 0.2 mi SSE 27.6 mph - N/A Thunderstorm Thunderstorm
3:35 PM 37.4 °F 25.0 °F 32.0 °F 81% 30.25 in 10.0 mi South 29.9 mph 36.8 mph N/A Thunderstorm Thunderstorm
3:55 PM 37.4 °F 26.9 °F 33.8 °F 87% 30.25 in 3.0 mi SSE 20.7 mph 31.1 mph N/A Snow , Thunderstorm Light Thunderstorms and Snow
4:15 PM 37.4 °F 26.9 °F 33.8 °F 87% 30.24 in 0.8 mi SSE 20.7 mph 29.9 mph N/A Snow , Thunderstorm Light Thunderstorms and Snow
4:55 PM 37.4 °F 26.6 °F 30.2 °F 75% 30.21 in 10.0 mi South 21.9 mph 28.8 mph N/A   Scattered Clouds
5:15 PM 37.4 °F 28.9 °F 30.2 °F 75% 30.20 in 10.0 mi SSE 13.8 mph 17.3 mph N/A   Scattered Clouds
5:35 PM 37.4 °F 28.5 °F 28.4 °F 70% 30.20 in 10.0 mi South 15.0 mph 25.3 mph N/A   Clear
5:55 PM 39.2 °F 29.8 °F 26.6 °F 61% 30.20 in 10.0 mi South 18.4 mph 28.8 mph N/A   Clear
6:15 PM 37.4 °F 27.2 °F 26.6 °F 65% 30.20 in 10.0 mi SSE 19.6 mph 29.9 mph 0.01 in   Clear
6:35 PM 37.4 °F 26.9 °F 26.6 °F 65% 30.19 in 10.0 mi South 20.7 mph 25.3 mph 0.01 in Thunderstorm Clear
6:55 PM 37.4 °F 27.5 °F 28.4 °F 70% 30.20 in 10.0 mi South 18.4 mph - 0.01 in Thunderstorm Scattered Clouds
7:15 PM 37.4 °F 30.3 °F 30.2 °F 75% 30.19 in 10.0 mi SSE 10.4 mph - N/A Thunderstorm Mostly Cloudy
7:35 PM 37.4 °F 25.0 °F 28.4 °F 70% 30.20 in 3.0 mi South 29.9 mph 35.7 mph N/A Snow Light Snow
7:55 PM 35.6 °F 27.1 °F 28.4 °F 75% 30.20 in 4.0 mi South 12.7 mph 28.8 mph N/A Snow Light Snow
8:15 PM 33.8 °F 22.8 °F 28.4 °F 81% 30.21 in 10.0 mi South 18.4 mph - N/A   Mostly Cloudy
8:35 PM 33.8 °F 25.3 °F 30.2 °F 87% 30.21 in 10.0 mi South 11.5 mph 16.1 mph N/A   Overcast
8:55 PM 33.8 °F 27.0 °F 28.4 °F 81% 30.21 in 1.5 mi South 8.1 mph 12.7 mph N/A   Haze
9:15 PM 33.8 °F 23.9 °F 30.2 °F 87% 30.20 in 10.0 mi SSE 15.0 mph 19.6 mph N/A   Overcast
9:55 PM 33.8 °F 25.8 °F 26.6 °F 75% 30.20 in 10.0 mi SSE 10.4 mph - N/A   Mostly Cloudy
10:35 PM 32.0 °F 24.8 °F 26.6 °F 80% 30.18 in 0.5 mi WSW 8.1 mph 16.1 mph N/A   Haze
10:55 PM 32.0 °F 22.1 °F 23.0 °F 69% 30.18 in 10.0 mi South 13.8 mph 20.7 mph N/A Thunderstorm Scattered Clouds
11:15 PM 32.0 °F 20.8 °F 24.8 °F 75% 30.18 in 5.0 mi South 17.3 mph - N/A Snow Light Snow